| time (UTC) | temp C | wind direction | speed KPH | gust KPH | rain 1hr cm | rain 24hr cm | rain mn cm | humidity % | barometer mb |
| 20260507070335 | 5 | 156 | 0.0 | 0.0 | 0.00 | 0.00 | 0.00 | 87 | 1018.7 |
| 20260507065831 | 5 | 156 | 0.0 | 0.0 | 0.00 | 0.00 | 0.00 | 87 | 1018.7 |
| 20260507065328 | 5 | 157 | 0.0 | 0.0 | 0.00 | 0.00 | 0.00 | 88 | 1018.5 |
| 20260507064825 | 5 | 156 | 0.0 | 0.0 | 0.00 | 0.00 | 0.00 | 87 | 1018.8 |
| 20260507064324 | 5 | 156 | 0.0 | 0.0 | 0.00 | 0.00 | 0.00 | 86 | 1018.7 |
| 20260507063821 | 5 | 156 | 0.0 | 0.0 | 0.00 | 0.00 | 0.00 | 85 | 1018.5 |
| 20260507063318 | 5 | 155 | 0.0 | 0.0 | 0.00 | 0.00 | 0.00 | 84 | 1018.8 |
| 20260507062814 | 5 | 155 | 0.0 | 0.0 | 0.00 | 0.00 | 0.00 | 85 | 1018.7 |
| 20260507062312 | 5 | 155 | 0.0 | 0.0 | 0.00 | 0.00 | 0.00 | 85 | 1018.5 |
| 20260507061810 | 5 | 156 | 0.0 | 0.0 | 0.00 | 0.00 | 0.00 | 85 | 1018.5 |
| 20260507061307 | 6 | 159 | 0.0 | 0.0 | 0.00 | 0.00 | 0.00 | 82 | 1018.5 |
| 20260507060806 | 6 | 156 | 0.0 | 0.0 | 0.00 | 0.00 | 0.00 | 82 | 1018.7 |
| 20260507060302 | 6 | 159 | 0.0 | 0.0 | 0.00 | 0.00 | 0.00 | 81 | 1018.4 |
| 20260507055758 | 6 | 153 | 0.0 | 0.0 | 0.00 | 0.00 | 0.00 | 82 | 1018.4 |
| 20260507055253 | 6 | 156 | 0.0 | 0.0 | 0.00 | 0.00 | 0.00 | 82 | 1018.4 |
| 20260507054750 | 6 | 158 | 0.0 | 0.0 | 0.00 | 0.00 | 0.00 | 82 | 1018.5 |
| 20260507054247 | 6 | 158 | 0.0 | 0.0 | 0.00 | 0.00 | 0.00 | 81 | 1018.5 |
| 20260507053744 | 6 | 156 | 0.0 | 0.0 | 0.00 | 0.00 | 0.00 | 83 | 1018.4 |
| 20260507053242 | 6 | 156 | 0.0 | 0.0 | 0.00 | 0.00 | 0.00 | 82 | 1018.8 |
| 20260507052741 | 6 | 156 | 0.0 | 0.0 | 0.00 | 0.00 | 0.00 | 83 | 1018.7 |
| 20260507052236 | 6 | 157 | 0.0 | 0.0 | 0.00 | 0.00 | 0.00 | 82 | 1018.7 |
| 20260507051735 | 6 | 156 | 0.0 | 0.0 | 0.00 | 0.00 | 0.00 | 79 | 1018.5 |
| 20260507051231 | 7 | 156 | 0.0 | 0.0 | 0.00 | 0.00 | 0.00 | 77 | 1018.4 |
| 20260507050728 | 6 | 156 | 0.0 | 0.0 | 0.00 | 0.00 | 0.00 | 78 | 1018.5 |
| 20260507050225 | 6 | 159 | 0.0 | 0.0 | 0.00 | 0.00 | 0.00 | 79 | 1018.5 |
| 20260507045722 | 7 | 158 | 0.0 | 0.0 | 0.00 | 0.00 | 0.00 | 77 | 1018.5 |
| 20260507045218 | 7 | 155 | 0.0 | 0.0 | 0.00 | 0.00 | 0.00 | 77 | 1018.5 |
| 20260507044715 | 7 | 156 | 0.0 | 0.0 | 0.00 | 0.00 | 0.00 | 77 | 1018.4 |
| 20260507044211 | 7 | 156 | 0.0 | 0.0 | 0.00 | 0.00 | 0.00 | 75 | 1018.4 |
| 20260507043708 | 7 | 154 | 0.0 | 0.0 | 0.00 | 0.00 | 0.00 | 74 | 1018.3 |
| 20260507043205 | 8 | 148 | 0.0 | 0.0 | 0.00 | 0.00 | 0.00 | 74 | 1018.3 |
| 20260507042701 | 8 | 151 | 0.0 | 1.6 | 0.00 | 0.00 | 0.00 | 72 | 1018.3 |
| 20260507042156 | 8 | 145 | 1.6 | 1.6 | 0.00 | 0.00 | 0.00 | 72 | 1018.0 |
| 20260507041654 | 8 | 147 | 1.6 | 1.6 | 0.00 | 0.00 | 0.00 | 72 | 1018.3 |
| 20260507041150 | 8 | 159 | 0.0 | 1.6 | 0.00 | 0.00 | 0.00 | 72 | 1018.3 |
| 20260507040647 | 8 | 156 | 0.0 | 0.0 | 0.00 | 0.00 | 0.00 | 72 | 1018.0 |
| 20260507040143 | 8 | 156 | 0.0 | 0.0 | 0.00 | 0.00 | 0.00 | 72 | 1018.1 |
| 20260507035639 | 8 | 159 | 0.0 | 0.0 | 0.00 | 0.00 | 0.00 | 72 | 1018.1 |
| 20260507035135 | 8 | 133 | 0.0 | 1.6 | 0.00 | 0.00 | 0.00 | 72 | 1018.2 |
| 20260507034632 | 8 | 153 | 0.0 | 1.6 | 0.00 | 0.00 | 0.00 | 72 | 1018.1 |
| 20260507034130 | 8 | 147 | 0.0 | 0.0 | 0.00 | 0.00 | 0.00 | 73 | 1018.0 |
| 20260507033628 | 8 | 154 | 0.0 | 0.0 | 0.00 | 0.00 | 0.00 | 74 | 1018.0 |
| 20260507033125 | 8 | 156 | 0.0 | 0.0 | 0.00 | 0.00 | 0.00 | 75 | 1017.9 |
| 20260507032623 | 8 | 159 | 0.0 | 0.0 | 0.00 | 0.00 | 0.00 | 76 | 1018.0 |
| 20260507032118 | 8 | 159 | 0.0 | 0.0 | 0.00 | 0.00 | 0.00 | 75 | 1017.9 |
| 20260507031615 | 8 | 156 | 0.0 | 0.0 | 0.00 | 0.00 | 0.00 | 76 | 1017.9 |
| 20260507031112 | 8 | 157 | 0.0 | 0.0 | 0.00 | 0.00 | 0.00 | 75 | 1017.7 |
| 20260507030608 | 8 | 157 | 0.0 | 0.0 | 0.00 | 0.00 | 0.00 | 75 | 1017.7 |
| 20260507030107 | 8 | 157 | 0.0 | 0.0 | 0.00 | 0.00 | 0.00 | 75 | 1017.8 |
| 20260507025603 | 8 | 157 | 0.0 | 0.0 | 0.00 | 0.00 | 0.00 | 76 | 1017.8 |
| 20260507025100 | 8 | 156 | 0.0 | 0.0 | 0.00 | 0.00 | 0.00 | 75 | 1017.8 |
| 20260507024558 | 8 | 157 | 0.0 | 0.0 | 0.00 | 0.00 | 0.00 | 75 | 1017.7 |
| 20260507024050 | 8 | 156 | 0.0 | 0.0 | 0.00 | 0.00 | 0.00 | 73 | 1017.5 |
| 20260507023545 | 9 | 157 | 0.0 | 0.0 | 0.00 | 0.00 | 0.00 | 72 | 1017.4 |
| 20260507023043 | 10 | 156 | 0.0 | 0.0 | 0.00 | 0.00 | 0.00 | 71 | 1017.3 |
| 20260507022540 | 10 | 155 | 0.0 | 0.0 | 0.00 | 0.00 | 0.00 | 70 | 1017.3 |
| 20260507022035 | 10 | 156 | 0.0 | 0.0 | 0.00 | 0.00 | 0.00 | 70 | 1017.5 |
| 20260507021531 | 10 | 155 | 0.0 | 0.0 | 0.00 | 0.00 | 0.00 | 68 | 1017.7 |
| 20260507021028 | 10 | 154 | 0.0 | 0.0 | 0.00 | 0.00 | 0.00 | 68 | 1017.5 |
| 20260507020526 | 10 | 155 | 0.0 | 0.0 | 0.00 | 0.00 | 0.00 | 69 | 1017.4 |
| 20260507020022 | 10 | 156 | 0.0 | 0.0 | 0.00 | 0.00 | 0.00 | 69 | 1017.4 |
| 20260507015521 | 10 | 157 | 0.0 | 0.0 | 0.00 | 0.00 | 0.00 | 70 | 1017.4 |
| 20260507015018 | 10 | 156 | 0.0 | 0.0 | 0.00 | 0.00 | 0.00 | 69 | 1017.3 |
| 20260507014514 | 10 | 157 | 0.0 | 0.0 | 0.00 | 0.00 | 0.00 | 67 | 1017.2 |
| 20260507014010 | 10 | 151 | 0.0 | 0.0 | 0.00 | 0.00 | 0.00 | 66 | 1017.1 |
| 20260507013507 | 11 | 156 | 0.0 | 0.0 | 0.00 | 0.00 | 0.00 | 66 | 1017.1 |
| 20260507013004 | 11 | 156 | 0.0 | 0.0 | 0.00 | 0.00 | 0.00 | 63 | 1017.0 |
| 20260507012501 | 11 | 154 | 0.0 | 0.0 | 0.00 | 0.00 | 0.00 | 64 | 1016.9 |
| 20260507011957 | 11 | 140 | 0.0 | 1.6 | 0.00 | 0.00 | 0.00 | 63 | 1017.0 |
| 20260507011454 | 11 | 156 | 0.0 | 0.0 | 0.00 | 0.00 | 0.00 | 61 | 1016.9 |
| 20260507010950 | 11 | 148 | 1.6 | 1.6 | 0.00 | 0.00 | 0.00 | 61 | 1016.8 |
| 20260507010444 | 12 | 146 | 0.0 | 0.0 | 0.00 | 0.00 | 0.00 | 61 | 1016.9 |
| 20260507005942 | 12 | 137 | 1.6 | 1.6 | 0.00 | 0.00 | 0.00 | 59 | 1016.7 |
| 20260507005439 | 12 | 146 | 1.6 | 1.6 | 0.00 | 0.00 | 0.00 | 59 | 1016.7 |
| 20260507004935 | 12 | 116 | 1.6 | 1.6 | 0.00 | 0.00 | 0.00 | 58 | 1016.6 |
| 20260507004432 | 12 | 147 | 3.2 | 3.2 | 0.00 | 0.00 | 0.00 | 57 | 1016.7 |
| 20260507003930 | 13 | 142 | 0.0 | 1.6 | 0.00 | 0.00 | 0.00 | 57 | 1016.8 |
| 20260507003424 | 13 | 131 | 1.6 | 1.6 | 0.00 | 0.00 | 0.00 | 55 | 1016.6 |
| 20260507002914 | 13 | 138 | 0.0 | 1.6 | 0.00 | 0.00 | 0.00 | 55 | 1016.6 |
| 20260507002411 | 13 | 147 | 3.2 | 4.8 | 0.00 | 0.00 | 0.00 | 53 | 1016.7 |
| 20260507001908 | 13 | 146 | 1.6 | 3.2 | 0.00 | 0.00 | 0.00 | 54 | 1016.5 |
| 20260507001405 | 14 | 120 | 4.8 | 4.8 | 0.00 | 0.00 | 0.00 | 52 | 1016.5 |
| 20260507000902 | 14 | 126 | 4.8 | 6.4 | 0.00 | 0.00 | 0.00 | 52 | 1016.3 |
| 20260507000357 | 15 | 74 | 11.3 | 12.9 | 0.00 | 0.00 | 0.00 | 50 | 1016.4 |
| 20260506235853 | 15 | 102 | 6.4 | 9.7 | 0.00 | 0.00 | 0.00 | 51 | 1016.4 |
| 20260506235350 | 15 | 356 | 6.4 | 9.7 | 0.00 | 0.00 | 0.00 | 50 | 1016.3 |
| 20260506234846 | 15 | 156 | 3.2 | 4.8 | 0.00 | 0.00 | 0.00 | 54 | 1016.4 |
| 20260506234344 | 15 | 169 | 1.6 | 1.6 | 0.00 | 0.00 | 0.00 | 55 | 1016.2 |
| 20260506233841 | 15 | 72 | 6.4 | 9.7 | 0.00 | 0.00 | 0.00 | 52 | 1016.3 |
| 20260506233337 | 15 | 79 | 3.2 | 4.8 | 0.00 | 0.00 | 0.00 | 55 | 1016.1 |
| 20260506232835 | 15 | 104 | 6.4 | 6.4 | 0.00 | 0.00 | 0.00 | 54 | 1015.8 |
| 20260506232330 | 15 | 102 | 3.2 | 4.8 | 0.00 | 0.00 | 0.00 | 53 | 1015.7 |
| 20260506231826 | 14 | 62 | 9.7 | 12.9 | 0.00 | 0.00 | 0.00 | 52 | 1015.5 |
| 20260506231324 | 15 | 98 | 4.8 | 4.8 | 0.00 | 0.00 | 0.00 | 54 | 1015.4 |
| 20260506230821 | 15 | 21 | 8.0 | 12.9 | 0.00 | 0.00 | 0.00 | 52 | 1015.5 |
| 20260506230318 | 15 | 252 | 4.8 | 6.4 | 0.00 | 0.00 | 0.00 | 51 | 1015.3 |
| 20260506225814 | 15 | 32 | 9.7 | 14.5 | 0.00 | 0.00 | 0.00 | 52 | 1015.5 |
| 20260506225312 | 15 | 68 | 6.4 | 9.7 | 0.00 | 0.00 | 0.00 | 56 | 1015.4 |
| 20260506224808 | 14 | 95 | 4.8 | 6.4 | 0.00 | 0.00 | 0.00 | 55 | 1015.2 |
| 20260506224306 | 15 | 63 | 6.4 | 9.7 | 0.00 | 0.00 | 0.00 | 54 | 1015.5 |
| 20260506223802 | 15 | 147 | 3.2 | 4.8 | 0.00 | 0.00 | 0.00 | 53 | 1015.5 |
| 20260506223257 | 15 | 22 | 6.4 | 9.7 | 0.00 | 0.00 | 0.00 | 54 | 1015.4 |
| 20260506222754 | 15 | 91 | 8.0 | 11.3 | 0.00 | 0.00 | 0.00 | 53 | 1015.4 |
| 20260506222249 | 15 | 58 | 4.8 | 6.4 | 0.00 | 0.00 | 0.00 | 54 | 1015.3 |
| 20260506221742 | 15 | 63 | 8.0 | 9.7 | 0.00 | 0.00 | 0.00 | 53 | 1015.3 |
| 20260506221240 | 15 | 88 | 3.2 | 6.4 | 0.00 | 0.00 | 0.00 | 57 | 1015.5 |
| 20260506220737 | 15 | 60 | 1.6 | 4.8 | 0.00 | 0.00 | 0.00 | 54 | 1015.5 |
| 20260506220232 | 15 | 62 | 9.7 | 12.9 | 0.00 | 0.00 | 0.00 | 54 | 1015.4 |
| 20260506215729 | 15 | 65 | 9.7 | 14.5 | 0.00 | 0.00 | 0.00 | 53 | 1015.6 |
| 20260506215224 | 15 | 67 | 9.7 | 17.7 | 0.00 | 0.00 | 0.00 | 54 | 1015.4 |
| 20260506214721 | 15 | 67 | 12.9 | 14.5 | 0.00 | 0.00 | 0.00 | 55 | 1015.4 |
| 20260506214218 | 15 | 62 | 12.9 | 17.7 | 0.00 | 0.00 | 0.00 | 52 | 1015.2 |
| 20260506213716 | 15 | 36 | 8.0 | 12.9 | 0.00 | 0.00 | 0.00 | 53 | 1015.3 |
| 20260506213213 | 15 | 56 | 8.0 | 9.7 | 0.00 | 0.00 | 0.00 | 54 | 1015.5 |
| 20260506212710 | 15 | 58 | 8.0 | 14.5 | 0.00 | 0.00 | 0.00 | 54 | 1015.7 |
| 20260506212206 | 15 | 90 | 4.8 | 6.4 | 0.00 | 0.00 | 0.00 | 54 | 1015.5 |
| 20260506211656 | 15 | 111 | 4.8 | 4.8 | 0.00 | 0.00 | 0.00 | 56 | 1015.6 |
| 20260506211153 | 15 | 73 | 11.3 | 12.9 | 0.00 | 0.00 | 0.00 | 54 | 1015.8 |
| 20260506210650 | 15 | 74 | 8.0 | 12.9 | 0.00 | 0.00 | 0.00 | 57 | 1016.0 |
| 20260506210146 | 15 | 67 | 4.8 | 6.4 | 0.00 | 0.00 | 0.00 | 56 | 1015.8 |
| 20260506205644 | 14 | 93 | 8.0 | 9.7 | 0.00 | 0.00 | 0.00 | 57 | 1016.0 |
| 20260506205143 | 14 | 149 | 3.2 | 6.4 | 0.00 | 0.00 | 0.00 | 57 | 1016.0 |
| 20260506204642 | 14 | 127 | 6.4 | 9.7 | 0.00 | 0.00 | 0.00 | 56 | 1016.2 |
| 20260506204138 | 14 | 79 | 6.4 | 9.7 | 0.00 | 0.00 | 0.00 | 57 | 1016.3 |
| 20260506203637 | 15 | 66 | 9.7 | 11.3 | 0.00 | 0.00 | 0.00 | 58 | 1016.4 |
| 20260506203133 | 14 | 163 | 4.8 | 6.4 | 0.00 | 0.00 | 0.00 | 58 | 1016.3 |
| 20260506202631 | 14 | 92 | 6.4 | 11.3 | 0.00 | 0.00 | 0.00 | 56 | 1016.3 |
| 20260506202127 | 15 | 157 | 1.6 | 1.6 | 0.00 | 0.00 | 0.00 | 54 | 1016.7 |
| 20260506201624 | 14 | 53 | 8.0 | 11.3 | 0.00 | 0.00 | 0.00 | 57 | 1016.6 |
| 20260506201120 | 13 | 110 | 6.4 | 9.7 | 0.00 | 0.00 | 0.00 | 58 | 1016.9 |
| 20260506200617 | 13 | 116 | 3.2 | 6.4 | 0.00 | 0.00 | 0.00 | 60 | 1016.7 |
| 20260506200114 | 14 | 78 | 9.7 | 12.9 | 0.00 | 0.00 | 0.00 | 58 | 1016.8 |
| 20260506195610 | 15 | 101 | 3.2 | 4.8 | 0.00 | 0.00 | 0.00 | 56 | 1016.7 |
| 20260506195107 | 14 | 73 | 8.0 | 9.7 | 0.00 | 0.00 | 0.00 | 60 | 1016.5 |
| 20260506194605 | 15 | 108 | 14.5 | 16.1 | 0.00 | 0.00 | 0.00 | 60 | 1016.7 |
| 20260506194101 | 15 | 79 | 9.7 | 12.9 | 0.00 | 0.00 | 0.00 | 59 | 1016.8 |
| 20260506193559 | 15 | 121 | 4.8 | 9.7 | 0.00 | 0.00 | 0.00 | 58 | 1016.6 |
| 20260506193056 | 14 | 76 | 4.8 | 6.4 | 0.00 | 0.00 | 0.00 | 58 | 1016.9 |
| 20260506192552 | 15 | 21 | 9.7 | 14.5 | 0.00 | 0.00 | 0.00 | 58 | 1016.8 |
| 20260506192048 | 14 | 75 | 6.4 | 11.3 | 0.00 | 0.00 | 0.00 | 59 | 1016.8 |
| 20260506191545 | 14 | 98 | 9.7 | 12.9 | 0.00 | 0.00 | 0.00 | 57 | 1016.9 |
| 20260506191036 | 14 | 89 | 8.0 | 9.7 | 0.00 | 0.00 | 0.00 | 62 | 1016.8 |
| 20260506190533 | 14 | 79 | 6.4 | 6.4 | 0.00 | 0.00 | 0.00 | 60 | 1016.9 |
| 20260506190030 | 13 | 70 | 11.3 | 16.1 | 0.00 | 0.00 | 0.00 | 60 | 1016.8 |
| 20260506185527 | 13 | 76 | 9.7 | 12.9 | 0.00 | 0.00 | 0.00 | 60 | 1017.1 |
| 20260506185024 | 13 | 76 | 6.4 | 9.7 | 0.00 | 0.00 | 0.00 | 62 | 1017.1 |
| 20260506184521 | 13 | 117 | 4.8 | 6.4 | 0.00 | 0.00 | 0.00 | 67 | 1017.2 |
| 20260506184018 | 13 | 75 | 4.8 | 6.4 | 0.00 | 0.00 | 0.00 | 65 | 1017.1 |
| 20260506183514 | 13 | 67 | 8.0 | 11.3 | 0.00 | 0.00 | 0.00 | 64 | 1017.4 |
| 20260506183011 | 13 | 133 | 0.0 | 1.6 | 0.00 | 0.00 | 0.00 | 64 | 1017.5 |
| 20260506182509 | 13 | 26 | 9.7 | 12.9 | 0.00 | 0.00 | 0.00 | 65 | 1017.8 |
| 20260506182005 | 13 | 158 | 3.2 | 4.8 | 0.00 | 0.00 | 0.00 | 63 | 1017.9 |
| 20260506181503 | 13 | 56 | 8.0 | 11.3 | 0.00 | 0.00 | 0.00 | 62 | 1017.9 |
| 20260506181000 | 12 | 67 | 8.0 | 9.7 | 0.00 | 0.00 | 0.00 | 63 | 1018.0 |
| 20260506180456 | 13 | 152 | 0.0 | 1.6 | 0.00 | 0.00 | 0.00 | 66 | 1018.1 |
| 20260506175953 | 12 | 158 | 1.6 | 3.2 | 0.00 | 0.00 | 0.00 | 65 | 1018.2 |
| 20260506175449 | 12 | 145 | 1.6 | 3.2 | 0.00 | 0.00 | 0.00 | 65 | 1018.3 |
| 20260506174940 | 12 | 141 | 6.4 | 11.3 | 0.00 | 0.00 | 0.00 | 64 | 1018.3 |
| 20260506174438 | 13 | 145 | 3.2 | 3.2 | 0.00 | 0.00 | 0.00 | 62 | 1018.3 |
| 20260506173935 | 13 | 142 | 3.2 | 3.2 | 0.00 | 0.00 | 0.00 | 64 | 1018.4 |
| 20260506173432 | 13 | 75 | 3.2 | 4.8 | 0.00 | 0.00 | 0.00 | 62 | 1018.3 |
| 20260506172929 | 13 | 71 | 3.2 | 4.8 | 0.00 | 0.00 | 0.00 | 65 | 1018.2 |
| 20260506172426 | 12 | 80 | 8.0 | 9.7 | 0.00 | 0.00 | 0.00 | 63 | 1018.3 |
| 20260506171923 | 12 | 82 | 8.0 | 11.3 | 0.00 | 0.00 | 0.00 | 63 | 1018.3 |
| 20260506171420 | 12 | 136 | 4.8 | 6.4 | 0.00 | 0.00 | 0.00 | 65 | 1018.1 |
| 20260506170917 | 12 | 160 | 4.8 | 6.4 | 0.00 | 0.00 | 0.00 | 63 | 1018.1 |
| 20260506170413 | 12 | 59 | 8.0 | 11.3 | 0.00 | 0.00 | 0.00 | 64 | 1018.1 |
| 20260506165907 | 12 | 103 | 6.4 | 9.7 | 0.00 | 0.00 | 0.00 | 65 | 1018.2 |
| 20260506165405 | 12 | 65 | 9.7 | 14.5 | 0.00 | 0.00 | 0.00 | 63 | 1018.2 |
| 20260506164900 | 12 | 77 | 3.2 | 4.8 | 0.00 | 0.00 | 0.00 | 68 | 1018.2 |
| 20260506164356 | 12 | 57 | 6.4 | 14.5 | 0.00 | 0.00 | 0.00 | 69 | 1018.2 |
| 20260506163850 | 12 | 29 | 8.0 | 12.9 | 0.00 | 0.00 | 0.00 | 68 | 1018.0 |
| 20260506163344 | 12 | 70 | 6.4 | 6.4 | 0.00 | 0.00 | 0.00 | 66 | 1018.0 |
| 20260506162839 | 11 | 107 | 8.0 | 11.3 | 0.00 | 0.00 | 0.00 | 68 | 1017.9 |
| 20260506162337 | 11 | 74 | 11.3 | 12.9 | 0.00 | 0.00 | 0.00 | 67 | 1017.5 |
| 20260506161829 | 12 | 89 | 14.5 | 17.7 | 0.00 | 0.00 | 0.00 | 67 | 1017.2 |
| 20260506161326 | 12 | 110 | 9.7 | 11.3 | 0.00 | 0.00 | 0.00 | 68 | 1017.0 |
| 20260506160823 | 11 | 82 | 6.4 | 9.7 | 0.00 | 0.00 | 0.00 | 70 | 1016.9 |
| 20260506160319 | 11 | 78 | 11.3 | 14.5 | 0.00 | 0.00 | 0.00 | 68 | 1017.2 |
| 20260506155818 | 11 | 94 | 6.4 | 11.3 | 0.00 | 0.00 | 0.00 | 71 | 1017.2 |
| 20260506155315 | 11 | 77 | 8.0 | 11.3 | 0.00 | 0.00 | 0.00 | 70 | 1017.5 |
| 20260506153427 | 10 | 104 | 9.7 | 12.9 | 0.00 | 0.00 | 0.00 | 72 | 1017.2 |
| 20260506152925 | 10 | 86 | 19.3 | 20.9 | 0.00 | 0.00 | 0.00 | 72 | 1017.2 |
| 20260506152421 | 10 | 61 | 11.3 | 12.9 | 0.00 | 0.00 | 0.00 | 74 | 1017.2 |
| 20260506151920 | 10 | 75 | 6.4 | 11.3 | 0.00 | 0.00 | 0.00 | 75 | 1017.0 |
| 20260506151417 | 10 | 79 | 11.3 | 12.9 | 0.00 | 0.00 | 0.00 | 75 | 1017.1 |
| 20260506150914 | 10 | 57 | 12.9 | 16.1 | 0.00 | 0.00 | 0.00 | 74 | 1017.2 |
| 20260506150410 | 10 | 62 | 11.3 | 14.5 | 0.00 | 0.00 | 0.00 | 75 | 1016.9 |
| 20260506145908 | 10 | 128 | 8.0 | 11.3 | 0.00 | 0.00 | 0.00 | 75 | 1016.9 |
| 20260506145403 | 10 | 109 | 6.4 | 6.4 | 0.00 | 0.00 | 0.00 | 76 | 1017.0 |
| 20260506144901 | 9 | 58 | 3.2 | 4.8 | 0.00 | 0.00 | 0.00 | 78 | 1017.2 |
| 20260506144357 | 9 | 61 | 14.5 | 17.7 | 0.00 | 0.00 | 0.00 | 76 | 1017.1 |
| 20260506143856 | 8 | 60 | 14.5 | 20.9 | 0.00 | 0.00 | 0.00 | 76 | 1017.2 |
| 20260506143353 | 8 | 52 | 16.1 | 20.9 | 0.00 | 0.00 | 0.00 | 76 | 1017.3 |
| 20260506142851 | 8 | 37 | 11.3 | 12.9 | 0.00 | 0.00 | 0.00 | 77 | 1017.4 |
| 20260506142348 | 8 | 100 | 12.9 | 16.1 | 0.00 | 0.00 | 0.00 | 76 | 1017.5 |
| 20260506141847 | 8 | 57 | 3.2 | 9.7 | 0.00 | 0.00 | 0.00 | 80 | 1017.3 |
| 20260506141344 | 8 | 71 | 4.8 | 6.4 | 0.00 | 0.00 | 0.00 | 79 | 1017.3 |
| 20260506140842 | 8 | 59 | 12.9 | 16.1 | 0.00 | 0.00 | 0.00 | 79 | 1017.4 |
| 20260506140339 | 8 | 40 | 14.5 | 16.1 | 0.00 | 0.00 | 0.00 | 79 | 1017.0 |
| 20260506135836 | 8 | 52 | 8.0 | 12.9 | 0.00 | 0.00 | 0.00 | 82 | 1016.8 |
| 20260506135333 | 8 | 99 | 6.4 | 6.4 | 0.00 | 0.00 | 0.00 | 83 | 1017.1 |
| 20260506134829 | 8 | 30 | 11.3 | 16.1 | 0.00 | 0.00 | 0.00 | 82 | 1017.3 |
| 20260506134325 | 8 | 77 | 6.4 | 9.7 | 0.00 | 0.00 | 0.00 | 84 | 1017.4 |
| 20260506133823 | 8 | 34 | 11.3 | 12.9 | 0.00 | 0.00 | 0.00 | 84 | 1017.2 |
| 20260506133319 | 8 | 34 | 6.4 | 9.7 | 0.00 | 0.00 | 0.00 | 85 | 1017.3 |
| 20260506132816 | 7 | 89 | 8.0 | 11.3 | 0.00 | 0.00 | 0.00 | 85 | 1017.1 |
| 20260506132313 | 8 | 44 | 8.0 | 11.3 | 0.00 | 0.00 | 0.00 | 87 | 1017.1 |
| 20260506131811 | 7 | 34 | 8.0 | 9.7 | 0.00 | 0.00 | 0.00 | 87 | 1016.9 |
| 20260506131307 | 7 | 65 | 8.0 | 9.7 | 0.00 | 0.00 | 0.00 | 88 | 1017.1 |
| 20260506130804 | 7 | 55 | 9.7 | 12.9 | 0.00 | 0.00 | 0.00 | 88 | 1016.9 |
| 20260506130301 | 7 | 93 | 8.0 | 9.7 | 0.00 | 0.00 | 0.00 | 89 | 1016.8 |
| 20260506125759 | 7 | 147 | 12.9 | 16.1 | 0.00 | 0.00 | 0.00 | 89 | 1016.5 |
| 20260506125257 | 7 | 71 | 6.4 | 9.7 | 0.00 | 0.00 | 0.00 | 89 | 1016.8 |
| 20260506124755 | 7 | 96 | 6.4 | 9.7 | 0.00 | 0.00 | 0.00 | 88 | 1016.8 |
| 20260506124252 | 7 | 28 | 6.4 | 11.3 | 0.00 | 0.00 | 0.00 | 89 | 1016.7 |
| 20260506123749 | 7 | 111 | 6.4 | 6.4 | 0.00 | 0.00 | 0.00 | 90 | 1016.8 |
| 20260506123248 | 7 | 69 | 9.7 | 14.5 | 0.00 | 0.00 | 0.00 | 89 | 1016.6 |
| 20260506122744 | 7 | 75 | 8.0 | 9.7 | 0.00 | 0.00 | 0.00 | 89 | 1016.7 |
| 20260506122241 | 7 | 133 | 4.8 | 6.4 | 0.00 | 0.00 | 0.00 | 90 | 1016.6 |
| 20260506121740 | 7 | 87 | 12.9 | 16.1 | 0.00 | 0.00 | 0.00 | 89 | 1016.7 |
| 20260506121236 | 7 | 45 | 3.2 | 6.4 | 0.00 | 0.00 | 0.00 | 90 | 1016.8 |
| 20260506120733 | 7 | 74 | 6.4 | 11.3 | 0.00 | 0.00 | 0.00 | 91 | 1016.7 |
| 20260506120231 | 7 | 90 | 6.4 | 6.4 | 0.00 | 0.00 | 0.00 | 91 | 1016.8 |
| 20260506115729 | 7 | 61 | 4.8 | 6.4 | 0.00 | 0.00 | 0.00 | 92 | 1016.6 |
| 20260506115227 | 7 | 86 | 4.8 | 4.8 | 0.00 | 0.00 | 0.00 | 92 | 1016.6 |
| 20260506114724 | 7 | 71 | 4.8 | 6.4 | 0.00 | 0.00 | 0.00 | 92 | 1016.5 |
| 20260506114222 | 7 | 139 | 1.6 | 3.2 | 0.00 | 0.00 | 0.00 | 92 | 1016.4 |
| 20260506113720 | 7 | 149 | 1.6 | 1.6 | 0.00 | 0.00 | 0.00 | 92 | 1016.4 |
| 20260506113217 | 7 | 77 | 4.8 | 6.4 | 0.00 | 0.00 | 0.00 | 92 | 1016.5 |
| 20260506112713 | 7 | 132 | 1.6 | 3.2 | 0.00 | 0.00 | 0.00 | 92 | 1016.5 |
| 20260506112211 | 7 | 105 | 4.8 | 6.4 | 0.00 | 0.00 | 0.00 | 92 | 1016.2 |
| 20260506111708 | 7 | 78 | 6.4 | 6.4 | 0.00 | 0.00 | 0.00 | 91 | 1016.3 |
| 20260506111207 | 7 | 60 | 8.0 | 12.9 | 0.00 | 0.00 | 0.00 | 91 | 1015.8 |
| 20260506110703 | 7 | 83 | 1.6 | 3.2 | 0.00 | 0.00 | 0.00 | 91 | 1015.7 |
| 20260506110201 | 7 | 71 | 4.8 | 6.4 | 0.00 | 0.00 | 0.00 | 91 | 1015.6 |
| 20260506105657 | 7 | 134 | 4.8 | 6.4 | 0.00 | 0.00 | 0.00 | 91 | 1015.5 |
| 20260506105154 | 7 | 122 | 6.4 | 6.4 | 0.00 | 0.00 | 0.00 | 91 | 1015.3 |
| 20260506104652 | 7 | 86 | 4.8 | 6.4 | 0.00 | 0.00 | 0.00 | 90 | 1015.4 |
| 20260506104149 | 7 | 124 | 4.8 | 4.8 | 0.00 | 0.00 | 0.00 | 90 | 1015.3 |
| 20260506103646 | 7 | 198 | 9.7 | 12.9 | 0.00 | 0.00 | 0.00 | 90 | 1015.3 |
| 20260506103143 | 7 | 101 | 4.8 | 4.8 | 0.00 | 0.00 | 0.00 | 90 | 1015.1 |
| 20260506102642 | 7 | 92 | 1.6 | 3.2 | 0.00 | 0.00 | 0.00 | 90 | 1014.7 |
| 20260506102139 | 7 | 102 | 4.8 | 4.8 | 0.00 | 0.00 | 0.00 | 90 | 1014.6 |
| 20260506101635 | 7 | 103 | 8.0 | 12.9 | 0.00 | 0.00 | 0.00 | 90 | 1014.6 |
| 20260506101132 | 7 | 70 | 6.4 | 11.3 | 0.00 | 0.00 | 0.00 | 90 | 1014.4 |
| 20260506100631 | 7 | 144 | 6.4 | 9.7 | 0.00 | 0.00 | 0.00 | 90 | 1014.2 |
| 20260506100128 | 7 | 100 | 4.8 | 6.4 | 0.00 | 0.00 | 0.00 | 89 | 1014.2 |
| 20260506095627 | 7 | 139 | 3.2 | 6.4 | 0.00 | 0.00 | 0.00 | 88 | 1014.4 |
| 20260506095123 | 7 | 131 | 1.6 | 3.2 | 0.00 | 0.00 | 0.00 | 89 | 1014.4 |
| 20260506094621 | 7 | 100 | 3.2 | 3.2 | 0.00 | 0.00 | 0.00 | 89 | 1014.4 |
| 20260506094118 | 7 | 41 | 4.8 | 9.7 | 0.00 | 0.00 | 0.00 | 89 | 1014.3 |
| 20260506093616 | 7 | 90 | 1.6 | 4.8 | 0.00 | 0.00 | 0.00 | 89 | 1014.1 |
| 20260506093113 | 7 | 137 | 1.6 | 1.6 | 0.00 | 0.00 | 0.00 | 88 | 1014.0 |
| 20260506092611 | 7 | 138 | 4.8 | 6.4 | 0.00 | 0.00 | 0.00 | 88 | 1013.9 |
| 20260506092108 | 7 | 58 | 6.4 | 6.4 | 0.00 | 0.00 | 0.00 | 87 | 1013.6 |
| 20260506091606 | 7 | 145 | 4.8 | 4.8 | 0.00 | 0.00 | 0.00 | 88 | 1013.2 |
| 20260506091103 | 7 | 84 | 8.0 | 9.7 | 0.00 | 0.00 | 0.00 | 87 | 1013.2 |
| 20260506090601 | 7 | 79 | 8.0 | 11.3 | 0.00 | 0.00 | 0.00 | 87 | 1013.1 |
| 20260506090057 | 7 | 87 | 6.4 | 9.7 | 0.00 | 0.00 | 0.00 | 88 | 1013.2 |
| 20260506085554 | 7 | 96 | 8.0 | 9.7 | 0.00 | 0.00 | 0.00 | 87 | 1013.6 |
| 20260506085050 | 7 | 78 | 3.2 | 4.8 | 0.00 | 0.00 | 0.00 | 87 | 1013.8 |
| 20260506084547 | 7 | 106 | 6.4 | 9.7 | 0.00 | 0.00 | 0.00 | 86 | 1013.8 |
| 20260506084044 | 7 | 98 | 6.4 | 6.4 | 0.00 | 0.00 | 0.00 | 87 | 1013.7 |
| 20260506083541 | 7 | 109 | 3.2 | 3.2 | 0.00 | 0.00 | 0.00 | 87 | 1013.5 |
| 20260506083038 | 7 | 128 | 3.2 | 6.4 | 0.00 | 0.00 | 0.00 | 87 | 1013.7 |
| 20260506082535 | 7 | 86 | 3.2 | 4.8 | 0.00 | 0.00 | 0.00 | 87 | 1013.7 |
| 20260506082030 | 7 | 90 | 6.4 | 6.4 | 0.00 | 0.00 | 0.00 | 86 | 1013.5 |
| 20260506081529 | 7 | 137 | 4.8 | 6.4 | 0.00 | 0.00 | 0.00 | 86 | 1013.0 |
| 20260506081026 | 7 | 68 | 6.4 | 9.7 | 0.00 | 0.00 | 0.00 | 87 | 1012.5 |
| 20260506080524 | 7 | 50 | 9.7 | 12.9 | 0.00 | 0.00 | 0.00 | 87 | 1012.4 |
| 20260506073507 | 7 | 125 | 4.8 | 4.8 | 0.00 | 0.00 | 0.00 | 89 | 1012.3 |
| 20260506073004 | 7 | 60 | 9.7 | 12.9 | 0.00 | 0.00 | 0.00 | 89 | 1012.3 |
| 20260506072501 | 7 | 103 | 8.0 | 9.7 | 0.00 | 0.00 | 0.00 | 89 | 1012.3 |
| 20260506071959 | 7 | 130 | 4.8 | 6.4 | 0.00 | 0.00 | 0.00 | 90 | 1012.6 |
| 20260506071457 | 7 | 99 | 1.6 | 3.2 | 0.00 | 0.00 | 0.00 | 90 | 1012.4 |
| 20260506070953 | 7 | 80 | 9.7 | 11.3 | 0.00 | 0.00 | 0.00 | 89 | 1012.4 |